Time,TemperatureF,DewpointF,PressureIn,WindDirection,WindDirectionDegrees,WindSpeedMPH,WindSpeedGustMPH,Humidity,HourlyPrecipIn,Conditions,Clouds,dailyrainin,SoftwareType,DateUTC
2013-05-24 00:02:00,51.2,45.6,30.24,North,9,0.0,0.0,81,0.00,,,0.00,Wunderground v.1.15,2013-05-24 05:02:00,
2013-05-24 00:08:00,51.1,45.1,30.24,North,9,0.0,0.0,80,0.00,,,0.00,Wunderground v.1.15,2013-05-24 05:08:00,
2013-05-24 00:13:00,51.0,45.0,30.24,North,9,0.0,0.0,80,0.00,,,0.00,Wunderground v.1.15,2013-05-24 05:13:00,
2013-05-24 00:19:00,50.9,44.6,30.24,North,9,0.0,0.0,79,0.00,,,0.00,Wunderground v.1.15,2013-05-24 05:19:00,
2013-05-24 00:24:00,50.8,44.5,30.24,North,9,0.0,0.0,79,0.00,,,0.00,Wunderground v.1.15,2013-05-24 05:24:00,
2013-05-24 00:30:00,50.6,44.3,30.25,North,9,0.0,0.0,79,0.00,,,0.00,Wunderground v.1.15,2013-05-24 05:30:00,
2013-05-24 00:36:00,50.5,43.9,30.25,North,9,0.0,0.0,78,0.00,,,0.00,Wunderground v.1.15,2013-05-24 05:36:00,
2013-05-24 00:42:00,50.3,43.7,30.25,North,9,0.0,0.0,78,0.00,,,0.00,Wunderground v.1.15,2013-05-24 05:42:00,
2013-05-24 00:48:00,50.4,43.5,30.25,North,9,0.0,0.0,77,0.00,,,0.00,Wunderground v.1.15,2013-05-24 05:48:00,
2013-05-24 00:53:00,50.5,43.6,30.26,North,9,0.0,0.0,77,0.00,,,0.00,Wunderground v.1.15,2013-05-24 05:53:00,
2013-05-24 00:58:00,50.4,43.1,30.26,North,9,0.0,0.0,76,0.00,,,0.00,Wunderground v.1.15,2013-05-24 05:58:00,
2013-05-24 01:04:00,50.3,43.0,30.26,North,9,0.0,0.0,76,0.00,,,0.00,Wunderground v.1.15,2013-05-24 06:04:00,
2013-05-24 01:10:00,50.0,43.1,30.26,North,9,0.0,0.0,77,0.00,,,0.00,Wunderground v.1.15,2013-05-24 06:10:00,
2013-05-24 01:15:00,49.9,43.0,30.26,North,9,0.0,0.0,77,0.00,,,0.00,Wunderground v.1.15,2013-05-24 06:15:00,
2013-05-24 01:22:00,49.6,42.7,30.27,North,9,0.0,0.0,77,0.00,,,0.00,Wunderground v.1.15,2013-05-24 06:22:00,
2013-05-24 01:28:00,49.5,42.6,30.27,North,9,0.0,0.0,77,0.00,,,0.00,Wunderground v.1.15,2013-05-24 06:28:00,
2013-05-24 01:33:00,49.5,42.2,30.26,North,9,0.0,0.0,76,0.00,,,0.00,Wunderground v.1.15,2013-05-24 06:33:00,
2013-05-24 01:39:00,49.5,42.2,30.26,North,9,0.0,0.0,76,0.00,,,0.00,Wunderground v.1.15,2013-05-24 06:39:00,
2013-05-24 01:44:00,49.6,42.0,30.26,North,9,0.0,0.0,75,0.00,,,0.00,Wunderground v.1.15,2013-05-24 06:44:00,
2013-05-24 01:49:00,49.6,42.0,30.27,North,9,0.0,0.0,75,0.00,,,0.00,Wunderground v.1.15,2013-05-24 06:49:00,
2013-05-24 01:54:00,49.6,41.7,30.27,North,9,0.0,0.0,74,0.00,,,0.00,Wunderground v.1.15,2013-05-24 06:54:00,
2013-05-24 01:59:00,49.5,41.6,30.27,North,9,0.0,0.0,74,0.00,,,0.00,Wunderground v.1.15,2013-05-24 06:59:00,
2013-05-24 02:04:00,49.4,41.5,30.27,North,9,0.0,0.0,74,0.00,,,0.00,Wunderground v.1.15,2013-05-24 07:04:00,
2013-05-24 02:09:00,49.3,41.7,30.27,North,9,0.0,0.0,75,0.00,,,0.00,Wunderground v.1.15,2013-05-24 07:09:00,
2013-05-24 02:14:00,49.2,41.6,30.27,North,9,0.0,0.0,75,0.00,,,0.00,Wunderground v.1.15,2013-05-24 07:14:00,
2013-05-24 02:19:00,49.0,41.4,30.27,North,9,0.0,0.0,75,0.00,,,0.00,Wunderground v.1.15,2013-05-24 07:19:00,
2013-05-24 02:24:00,48.9,41.3,30.27,North,9,0.0,0.0,75,0.00,,,0.00,Wunderground v.1.15,2013-05-24 07:24:00,
2013-05-24 02:29:00,48.9,41.3,30.27,North,9,0.0,0.0,75,0.00,,,0.00,Wunderground v.1.15,2013-05-24 07:29:00,
2013-05-24 02:34:00,48.9,41.3,30.27,North,9,0.0,0.0,75,0.00,,,0.00,Wunderground v.1.15,2013-05-24 07:34:00,
2013-05-24 02:39:00,48.8,41.2,30.27,North,9,0.0,0.0,75,0.00,,,0.00,Wunderground v.1.15,2013-05-24 07:39:00,
2013-05-24 02:44:00,48.8,41.2,30.27,North,9,0.0,0.0,75,0.00,,,0.00,Wunderground v.1.15,2013-05-24 07:44:00,
2013-05-24 02:49:00,48.7,41.1,30.27,North,9,0.0,0.0,75,0.00,,,0.00,Wunderground v.1.15,2013-05-24 07:49:00,
2013-05-24 02:55:00,48.5,41.3,30.27,North,9,0.0,0.0,76,0.00,,,0.00,Wunderground v.1.15,2013-05-24 07:55:00,
2013-05-24 03:00:00,48.3,41.1,30.27,North,9,0.0,0.0,76,0.00,,,0.00,Wunderground v.1.15,2013-05-24 08:00:00,
2013-05-24 03:05:00,48.0,41.1,30.27,North,9,0.0,0.0,77,0.00,,,0.00,Wunderground v.1.15,2013-05-24 08:05:00,
2013-05-24 03:10:00,47.8,41.3,30.27,North,9,0.0,0.0,78,0.00,,,0.00,Wunderground v.1.15,2013-05-24 08:10:00,
2013-05-24 03:15:00,47.9,41.0,30.27,North,9,0.0,0.0,77,0.00,,,0.00,Wunderground v.1.15,2013-05-24 08:15:00,
2013-05-24 03:20:00,48.1,41.2,30.27,North,9,0.0,0.0,77,0.00,,,0.00,Wunderground v.1.15,2013-05-24 08:20:00,
2013-05-24 03:25:00,48.3,41.1,30.27,North,9,0.0,0.0,76,0.00,,,0.00,Wunderground v.1.15,2013-05-24 08:25:00,
2013-05-24 03:30:00,48.4,40.8,30.27,North,9,0.0,0.0,75,0.00,,,0.00,Wunderground v.1.15,2013-05-24 08:30:00,
2013-05-24 03:35:00,48.4,40.8,30.27,North,9,0.0,0.0,75,0.00,,,0.00,Wunderground v.1.15,2013-05-24 08:35:00,
2013-05-24 03:40:00,48.4,40.8,30.28,North,9,0.0,0.0,75,0.00,,,0.00,Wunderground v.1.15,2013-05-24 08:40:00,
2013-05-24 03:45:00,48.3,40.7,30.28,North,9,0.0,0.0,75,0.00,,,0.00,Wunderground v.1.15,2013-05-24 08:45:00,
2013-05-24 03:50:00,48.3,40.7,30.28,North,10,0.0,0.0,75,0.00,,,0.00,Wunderground v.1.15,2013-05-24 08:50:00,
2013-05-24 03:55:00,48.3,40.7,30.28,North,10,0.0,0.0,75,0.00,,,0.00,Wunderground v.1.15,2013-05-24 08:55:00,
2013-05-24 04:00:00,48.3,40.7,30.28,North,10,0.0,0.0,75,0.00,,,0.00,Wunderground v.1.15,2013-05-24 09:00:00,
2013-05-24 04:05:00,47.9,40.7,30.28,North,10,0.0,0.0,76,0.00,,,0.00,Wunderground v.1.15,2013-05-24 09:05:00,
2013-05-24 04:10:00,47.5,40.6,30.29,North,10,0.0,0.0,77,0.00,,,0.00,Wunderground v.1.15,2013-05-24 09:10:00,
2013-05-24 04:15:00,46.9,40.4,30.29,North,10,0.0,0.0,78,0.00,,,0.00,Wunderground v.1.15,2013-05-24 09:15:00,
2013-05-24 04:20:00,46.5,40.3,30.29,North,10,0.0,0.0,79,0.00,,,0.00,Wunderground v.1.15,2013-05-24 09:20:00,
2013-05-24 04:25:00,46.1,39.9,30.29,North,10,0.0,0.0,79,0.00,,,0.00,Wunderground v.1.15,2013-05-24 09:25:00,
2013-05-24 04:30:00,46.0,39.9,30.29,North,10,0.0,0.0,79,0.00,,,0.00,Wunderground v.1.15,2013-05-24 09:30:00,
2013-05-24 04:35:00,46.0,39.9,30.29,North,10,0.0,0.0,79,0.00,,,0.00,Wunderground v.1.15,2013-05-24 09:35:00,
2013-05-24 04:42:00,46.2,40.0,30.29,North,10,0.0,0.0,79,0.00,,,0.00,Wunderground v.1.15,2013-05-24 09:42:00,
2013-05-24 04:48:00,46.3,40.1,30.30,North,10,0.0,0.0,79,0.00,,,0.00,Wunderground v.1.15,2013-05-24 09:48:00,
2013-05-24 04:53:00,46.4,40.2,30.30,North,10,0.0,0.0,79,0.00,,,0.00,Wunderground v.1.15,2013-05-24 09:53:00,
2013-05-24 04:58:00,46.3,40.1,30.30,North,10,0.0,0.0,79,0.00,,,0.00,Wunderground v.1.15,2013-05-24 09:58:00,
2013-05-24 05:03:00,46.2,40.0,30.31,North,10,0.0,0.0,79,0.00,,,0.00,Wunderground v.1.15,2013-05-24 10:03:00,
2013-05-24 05:08:00,46.0,40.2,30.31,North,10,0.0,0.0,80,0.00,,,0.00,Wunderground v.1.15,2013-05-24 10:08:00,
2013-05-24 05:13:00,45.7,39.9,30.31,North,10,0.0,0.0,80,0.00,,,0.00,Wunderground v.1.15,2013-05-24 10:13:00,
2013-05-24 05:18:00,45.4,39.9,30.31,North,10,0.0,0.0,81,0.00,,,0.00,Wunderground v.1.15,2013-05-24 10:18:00,
2013-05-24 05:23:00,45.1,39.9,30.31,North,10,0.0,0.0,82,0.00,,,0.00,Wunderground v.1.15,2013-05-24 10:23:00,
2013-05-24 05:28:00,44.9,39.7,30.31,North,10,0.0,0.0,82,0.00,,,0.00,Wunderground v.1.15,2013-05-24 10:28:00,
2013-05-24 05:33:00,44.7,39.9,30.31,North,10,0.0,0.0,83,0.00,,,0.00,Wunderground v.1.15,2013-05-24 10:33:00,
2013-05-24 05:38:00,44.6,39.8,30.32,North,10,0.0,0.0,83,0.00,,,0.00,Wunderground v.1.15,2013-05-24 10:38:00,
2013-05-24 05:43:00,44.5,40.0,30.32,North,10,0.0,0.0,84,0.00,,,0.00,Wunderground v.1.15,2013-05-24 10:43:00,
2013-05-24 05:48:00,44.5,40.0,30.32,North,10,0.0,0.0,84,0.00,,,0.00,Wunderground v.1.15,2013-05-24 10:48:00,
2013-05-24 05:53:00,44.5,40.0,30.32,North,10,0.0,0.0,84,0.00,,,0.00,Wunderground v.1.15,2013-05-24 10:53:00,
2013-05-24 05:58:00,44.4,39.9,30.32,North,10,0.0,0.0,84,0.00,,,0.00,Wunderground v.1.15,2013-05-24 10:58:00,
2013-05-24 06:03:00,44.4,40.2,30.33,North,10,0.0,0.0,85,0.00,,,0.00,Wunderground v.1.15,2013-05-24 11:03:00,
2013-05-24 06:08:00,44.4,40.2,30.33,North,10,0.0,0.0,85,0.00,,,0.00,Wunderground v.1.15,2013-05-24 11:08:00,
2013-05-24 06:13:00,44.4,40.5,30.33,North,10,0.0,0.0,86,0.00,,,0.00,Wunderground v.1.15,2013-05-24 11:13:00,
2013-05-24 06:18:00,44.5,40.6,30.33,North,10,0.0,0.0,86,0.00,,,0.00,Wunderground v.1.15,2013-05-24 11:18:00,
2013-05-24 06:23:00,44.5,40.6,30.33,North,10,0.0,0.0,86,0.00,,,0.00,Wunderground v.1.15,2013-05-24 11:23:00,
2013-05-24 06:28:00,44.7,40.8,30.34,North,10,0.0,0.0,86,0.00,,,0.00,Wunderground v.1.15,2013-05-24 11:28:00,
2013-05-24 06:33:00,44.9,41.3,30.34,North,10,0.0,0.0,87,0.00,,,0.00,Wunderground v.1.15,2013-05-24 11:33:00,
2013-05-24 06:38:00,45.1,41.2,30.34,North,10,0.0,0.0,86,0.00,,,0.00,Wunderground v.1.15,2013-05-24 11:38:00,
2013-05-24 06:43:00,45.3,41.4,30.34,North,10,0.0,0.0,86,0.00,,,0.00,Wunderground v.1.15,2013-05-24 11:43:00,
2013-05-24 06:48:00,45.5,41.9,30.35,North,10,0.0,0.0,87,0.00,,,0.00,Wunderground v.1.15,2013-05-24 11:48:00,
2013-05-24 06:53:00,45.8,42.2,30.35,North,10,0.0,0.0,87,0.00,,,0.00,Wunderground v.1.15,2013-05-24 11:53:00,
2013-05-24 06:58:00,46.4,43.0,30.35,North,10,0.0,0.0,88,0.00,,,0.00,Wunderground v.1.15,2013-05-24 11:58:00,
2013-05-24 07:03:00,47.2,43.8,30.35,North,10,0.0,0.0,88,0.00,,,0.00,Wunderground v.1.15,2013-05-24 12:03:00,
2013-05-24 07:08:00,48.0,44.3,30.35,North,10,0.0,0.0,87,0.00,,,0.00,Wunderground v.1.15,2013-05-24 12:08:00,
2013-05-24 07:13:00,48.6,44.9,30.35,North,10,0.0,0.0,87,0.00,,,0.00,Wunderground v.1.15,2013-05-24 12:13:00,
2013-05-24 07:18:00,49.2,45.2,30.35,North,10,0.0,0.0,86,0.00,,,0.00,Wunderground v.1.15,2013-05-24 12:18:00,
2013-05-24 07:23:00,49.7,45.7,30.35,North,10,0.0,0.0,86,0.00,,,0.00,Wunderground v.1.15,2013-05-24 12:23:00,
2013-05-24 07:28:00,50.0,46.0,30.35,North,11,0.0,0.0,86,0.00,,,0.00,Wunderground v.1.15,2013-05-24 12:28:00,
2013-05-24 07:33:00,50.2,46.2,30.35,North,11,0.0,0.0,86,0.00,,,0.00,Wunderground v.1.15,2013-05-24 12:33:00,
2013-05-24 07:38:00,50.4,46.4,30.35,North,11,0.0,0.0,86,0.00,,,0.00,Wunderground v.1.15,2013-05-24 12:38:00,
2013-05-24 07:43:00,50.4,46.4,30.35,North,11,0.0,0.0,86,0.00,,,0.00,Wunderground v.1.15,2013-05-24 12:43:00,
2013-05-24 07:48:00,50.3,46.3,30.36,South,170,0.0,0.0,86,0.00,,,0.00,Wunderground v.1.15,2013-05-24 12:48:00,
2013-05-24 07:53:00,50.0,46.0,30.36,ESE,113,0.0,0.0,86,0.00,,,0.00,Wunderground v.1.15,2013-05-24 12:53:00,
2013-05-24 07:58:00,49.7,46.0,30.36,ESE,107,0.0,0.0,87,0.00,,,0.00,Wunderground v.1.15,2013-05-24 12:58:00,
2013-05-24 08:03:00,49.5,46.1,30.36,ESE,102,0.0,0.0,88,0.00,,,0.00,Wunderground v.1.15,2013-05-24 13:03:00,
2013-05-24 08:08:00,49.4,46.3,30.37,East,95,0.0,0.0,89,0.00,,,0.00,Wunderground v.1.15,2013-05-24 13:08:00,
2013-05-24 08:13:00,49.5,46.7,30.36,East,82,0.0,0.0,90,0.00,,,0.00,Wunderground v.1.15,2013-05-24 13:13:00,
2013-05-24 08:18:00,49.8,47.3,30.36,East,83,0.0,0.0,91,0.00,,,0.00,Wunderground v.1.15,2013-05-24 13:18:00,
2013-05-24 08:23:00,50.4,47.6,30.36,East,83,0.0,0.0,90,0.00,,,0.00,Wunderground v.1.15,2013-05-24 13:23:00,
2013-05-24 08:28:00,51.1,48.3,30.36,East,79,0.0,0.0,90,0.00,,,0.00,Wunderground v.1.15,2013-05-24 13:28:00,
2013-05-24 08:33:00,51.6,47.9,30.37,East,80,0.0,0.0,87,0.00,,,0.00,Wunderground v.1.15,2013-05-24 13:33:00,
2013-05-24 08:38:00,52.1,47.7,30.37,ENE,78,0.0,0.0,85,0.00,,,0.00,Wunderground v.1.15,2013-05-24 13:38:00,
2013-05-24 08:43:00,52.5,47.5,30.37,East,80,0.0,0.0,83,0.00,,,0.00,Wunderground v.1.15,2013-05-24 13:43:00,
2013-05-24 08:48:00,53.1,47.4,30.37,ENE,76,0.0,0.0,81,0.00,,,0.00,Wunderground v.1.15,2013-05-24 13:48:00,
2013-05-24 08:53:00,53.6,47.2,30.37,East,98,0.0,0.0,79,0.00,,,0.00,Wunderground v.1.15,2013-05-24 13:53:00,
2013-05-24 08:58:00,54.0,46.6,30.37,East,101,0.0,0.0,76,0.00,,,0.00,Wunderground v.1.15,2013-05-24 13:58:00,
2013-05-24 09:03:00,54.4,46.3,30.37,SE,145,0.0,0.0,74,0.00,,,0.00,Wunderground v.1.15,2013-05-24 14:03:00,
2013-05-24 09:08:00,54.6,45.8,30.37,SSE,152,0.0,0.0,72,0.00,,,0.00,Wunderground v.1.15,2013-05-24 14:08:00,
2013-05-24 09:13:00,54.9,46.4,30.37,SE,126,0.0,0.0,73,0.00,,,0.00,Wunderground v.1.15,2013-05-24 14:13:00,
2013-05-24 09:18:00,55.2,45.6,30.37,South,169,0.0,0.0,70,0.00,,,0.00,Wunderground v.1.15,2013-05-24 14:18:00,
2013-05-24 09:23:00,55.5,45.5,30.38,NE,38,0.0,0.0,69,0.00,,,0.00,Wunderground v.1.15,2013-05-24 14:23:00,
2013-05-24 09:28:00,55.8,45.4,30.38,SE,140,0.0,0.0,68,0.00,,,0.00,Wunderground v.1.15,2013-05-24 14:28:00,
2013-05-24 09:33:00,56.1,45.3,30.38,ESE,116,0.0,0.0,67,0.00,,,0.00,Wunderground v.1.15,2013-05-24 14:33:00,
2013-05-24 09:38:00,56.6,45.8,30.38,SE,142,0.0,0.0,67,0.00,,,0.00,Wunderground v.1.15,2013-05-24 14:38:00,
2013-05-24 09:43:00,56.8,45.2,30.38,SSE,148,0.0,0.0,65,0.00,,,0.00,Wunderground v.1.15,2013-05-24 14:43:00,
2013-05-24 09:48:00,57.0,46.1,30.38,SSE,156,0.0,0.0,67,0.00,,,0.00,Wunderground v.1.15,2013-05-24 14:48:00,
2013-05-24 09:53:00,57.1,45.4,30.38,SE,140,0.0,0.0,65,0.00,,,0.00,Wunderground v.1.15,2013-05-24 14:53:00,
2013-05-24 09:58:00,57.2,46.3,30.38,SE,138,0.0,0.0,67,0.00,,,0.00,Wunderground v.1.15,2013-05-24 14:58:00,
2013-05-24 10:03:00,57.6,46.3,30.38,SSE,161,0.0,0.0,66,0.00,,,0.00,Wunderground v.1.15,2013-05-24 15:03:00,
2013-05-24 10:08:00,57.6,45.9,30.38,SE,142,0.0,0.0,65,0.00,,,0.00,Wunderground v.1.15,2013-05-24 15:08:00,
2013-05-24 10:13:00,57.3,46.0,30.38,SE,140,0.0,0.0,66,0.00,,,0.00,Wunderground v.1.15,2013-05-24 15:13:00,
2013-05-24 10:18:00,57.4,46.9,30.38,SSE,154,0.0,0.0,68,0.00,,,0.00,Wunderground v.1.15,2013-05-24 15:18:00,
2013-05-24 10:23:00,57.7,46.4,30.38,South,173,0.0,0.0,66,0.00,,,0.00,Wunderground v.1.15,2013-05-24 15:23:00,
2013-05-24 10:28:00,57.7,47.2,30.38,SSE,148,0.0,0.0,68,0.00,,,0.00,Wunderground v.1.15,2013-05-24 15:28:00,
2013-05-24 10:33:00,58.2,48.1,30.38,SE,131,0.0,0.0,69,0.00,,,0.00,Wunderground v.1.15,2013-05-24 15:33:00,
2013-05-24 10:38:00,58.7,48.6,30.37,SE,125,0.0,0.0,69,0.00,,,0.00,Wunderground v.1.15,2013-05-24 15:38:00,
2013-05-24 10:43:00,59.3,48.7,30.37,SE,130,0.0,0.0,68,0.00,,,0.00,Wunderground v.1.15,2013-05-24 15:43:00,
2013-05-24 10:48:00,59.8,48.4,30.37,SE,144,0.0,0.0,66,0.00,,,0.00,Wunderground v.1.15,2013-05-24 15:48:00,
2013-05-24 10:53:00,60.2,48.8,30.37,SSE,167,0.0,0.0,66,0.00,,,0.00,Wunderground v.1.15,2013-05-24 15:53:00,
2013-05-24 10:58:00,60.3,48.5,30.37,ESE,121,0.0,0.0,65,0.00,,,0.00,Wunderground v.1.15,2013-05-24 15:58:00,
2013-05-24 11:04:00,60.5,48.7,30.37,SE,128,0.0,0.0,65,0.00,,,0.00,Wunderground v.1.15,2013-05-24 16:04:00,
2013-05-24 11:09:00,60.3,47.6,30.37,SE,145,0.0,0.0,63,0.00,,,0.00,Wunderground v.1.15,2013-05-24 16:09:00,
2013-05-24 11:14:00,60.3,48.9,30.37,SE,133,0.0,0.0,66,0.00,,,0.00,Wunderground v.1.15,2013-05-24 16:14:00,
2013-05-24 11:19:00,60.9,48.2,30.37,SE,144,0.0,0.0,63,0.00,,,0.00,Wunderground v.1.15,2013-05-24 16:19:00,
2013-05-24 11:24:00,61.1,47.1,30.37,SSE,151,0.0,0.0,60,0.00,,,0.00,Wunderground v.1.15,2013-05-24 16:24:00,
2013-05-24 11:29:00,61.0,47.9,30.37,South,172,0.0,0.0,62,0.00,,,0.00,Wunderground v.1.15,2013-05-24 16:29:00,
2013-05-24 11:34:00,61.1,48.0,30.37,SSE,160,0.0,0.0,62,0.00,,,0.00,Wunderground v.1.15,2013-05-24 16:34:00,
2013-05-24 11:39:00,61.0,48.7,30.37,SSE,163,0.0,0.0,64,0.00,,,0.00,Wunderground v.1.15,2013-05-24 16:39:00,
2013-05-24 11:44:00,61.1,47.5,30.36,SSE,156,0.0,0.0,61,0.00,,,0.00,Wunderground v.1.15,2013-05-24 16:44:00,
2013-05-24 11:49:00,61.1,47.5,30.37,South,181,0.0,0.0,61,0.00,,,0.00,Wunderground v.1.15,2013-05-24 16:49:00,
2013-05-24 11:54:00,61.2,47.6,30.36,SSE,168,0.0,0.0,61,0.00,,,0.00,Wunderground v.1.15,2013-05-24 16:54:00,
2013-05-24 11:59:00,61.6,48.9,30.36,SE,136,0.0,0.0,63,0.00,,,0.00,Wunderground v.1.15,2013-05-24 16:59:00,
2013-05-24 12:04:00,61.8,47.8,30.35,South,172,0.0,0.0,60,0.00,,,0.00,Wunderground v.1.15,2013-05-24 17:04:00,
2013-05-24 12:09:00,62.0,49.3,30.35,SSE,148,0.0,0.0,63,0.00,,,0.00,Wunderground v.1.15,2013-05-24 17:09:00,
2013-05-24 12:14:00,62.7,49.1,30.35,SE,143,0.0,0.0,61,0.00,,,0.00,Wunderground v.1.15,2013-05-24 17:14:00,
2013-05-24 12:19:00,63.4,49.3,30.34,SE,138,0.0,0.0,60,0.00,,,0.00,Wunderground v.1.15,2013-05-24 17:19:00,
2013-05-24 12:24:00,63.7,48.6,30.34,SSE,153,0.0,0.0,58,0.00,,,0.00,Wunderground v.1.15,2013-05-24 17:24:00,
2013-05-24 12:29:00,64.0,47.5,30.34,South,169,0.0,0.0,55,0.00,,,0.00,Wunderground v.1.15,2013-05-24 17:29:00,
2013-05-24 12:34:00,64.3,48.7,30.33,East,96,0.0,0.0,57,0.00,,,0.00,Wunderground v.1.15,2013-05-24 17:34:00,
2013-05-24 12:39:00,64.2,47.2,30.33,East,83,0.0,0.0,54,0.00,,,0.00,Wunderground v.1.15,2013-05-24 17:39:00,
2013-05-24 12:44:00,64.3,47.8,30.33,SSE,150,0.0,0.0,55,0.00,,,0.00,Wunderground v.1.15,2013-05-24 17:44:00,
2013-05-24 12:49:00,64.0,45.5,30.32,SSE,157,0.0,0.0,51,0.00,,,0.00,Wunderground v.1.15,2013-05-24 17:49:00,
2013-05-24 12:54:00,64.0,46.0,30.32,ESE,104,0.0,0.0,52,0.00,,,0.00,Wunderground v.1.15,2013-05-24 17:54:00,
2013-05-24 12:59:00,64.3,45.8,30.32,SE,144,0.0,0.0,51,0.00,,,0.00,Wunderground v.1.15,2013-05-24 17:59:00,
2013-05-24 13:04:00,64.8,48.7,30.31,SSE,167,0.0,0.0,56,0.00,,,0.00,Wunderground v.1.15,2013-05-24 18:04:00,
2013-05-24 13:09:00,65.2,47.1,30.31,SSE,155,0.0,0.0,52,0.00,,,0.00,Wunderground v.1.15,2013-05-24 18:09:00,
2013-05-24 13:14:00,65.4,45.7,30.31,SSE,164,0.0,0.0,49,0.00,,,0.00,Wunderground v.1.15,2013-05-24 18:14:00,
2013-05-24 13:19:00,65.6,47.0,30.31,SSE,154,0.0,0.0,51,0.00,,,0.00,Wunderground v.1.15,2013-05-24 18:19:00,
2013-05-24 13:24:00,65.8,46.6,30.31,ESE,115,0.0,0.0,50,0.00,,,0.00,Wunderground v.1.15,2013-05-24 18:24:00,
2013-05-24 13:29:00,66.1,46.4,30.31,SE,134,0.0,0.0,49,0.00,,,0.00,Wunderground v.1.15,2013-05-24 18:29:00,
2013-05-24 13:34:00,66.3,46.0,30.31,SE,138,0.0,0.0,48,0.00,,,0.00,Wunderground v.1.15,2013-05-24 18:34:00,
2013-05-24 13:39:00,66.5,44.5,30.31,ESE,113,0.0,0.0,45,0.00,,,0.00,Wunderground v.1.15,2013-05-24 18:39:00,
2013-05-24 13:44:00,66.6,45.2,30.31,South,181,0.0,0.0,46,0.00,,,0.00,Wunderground v.1.15,2013-05-24 18:44:00,
2013-05-24 13:49:00,66.6,48.4,30.31,South,169,0.0,0.0,52,0.00,,,0.00,Wunderground v.1.15,2013-05-24 18:49:00,
2013-05-24 13:54:00,66.7,45.8,30.31,SSE,150,0.0,0.0,47,0.00,,,0.00,Wunderground v.1.15,2013-05-24 18:54:00,
2013-05-24 13:59:00,66.8,45.3,30.30,ESE,102,0.0,0.0,46,0.00,,,0.00,Wunderground v.1.15,2013-05-24 18:59:00,
2013-05-24 14:05:00,67.1,46.7,30.30,SSE,160,0.0,0.0,48,0.00,,,0.00,Wunderground v.1.15,2013-05-24 19:05:00,
2013-05-24 14:10:00,66.7,45.3,30.30,SE,131,0.0,0.0,46,0.00,,,0.00,Wunderground v.1.15,2013-05-24 19:10:00,
2013-05-24 14:15:00,66.7,44.7,30.30,SE,145,0.0,0.0,45,0.00,,,0.00,Wunderground v.1.15,2013-05-24 19:15:00,
2013-05-24 14:20:00,66.9,44.3,30.30,SSE,152,0.0,0.0,44,0.00,,,0.00,Wunderground v.1.15,2013-05-24 19:20:00,
2013-05-24 14:25:00,67.2,44.5,30.29,SSE,164,0.0,0.0,44,0.00,,,0.00,Wunderground v.1.15,2013-05-24 19:25:00,
2013-05-24 14:30:00,66.8,42.3,30.30,SE,125,0.0,0.0,41,0.00,,,0.00,Wunderground v.1.15,2013-05-24 19:30:00,
2013-05-24 14:35:00,66.9,42.4,30.30,SSE,163,0.0,0.0,41,0.00,,,0.00,Wunderground v.1.15,2013-05-24 19:35:00,
2013-05-24 14:40:00,67.1,44.4,30.30,SE,130,0.0,0.0,44,0.00,,,0.00,Wunderground v.1.15,2013-05-24 19:40:00,
2013-05-24 14:45:00,67.1,43.8,30.30,SE,144,0.0,0.0,43,0.00,,,0.00,Wunderground v.1.15,2013-05-24 19:45:00,
2013-05-24 14:50:00,67.1,42.0,30.29,SSE,165,0.0,0.0,40,0.00,,,0.00,Wunderground v.1.15,2013-05-24 19:50:00,
2013-05-24 14:55:00,67.1,46.2,30.29,SSE,159,0.0,0.0,47,0.00,,,0.00,Wunderground v.1.15,2013-05-24 19:55:00,
2013-05-24 15:00:00,67.3,42.8,30.29,South,182,0.0,0.0,41,0.00,,,0.00,Wunderground v.1.15,2013-05-24 20:00:00,
2013-05-24 15:05:00,67.0,42.5,30.29,South,173,0.0,0.0,41,0.00,,,0.00,Wunderground v.1.15,2013-05-24 20:05:00,
2013-05-24 15:10:00,67.0,44.9,30.29,SSE,165,0.0,0.0,45,0.00,,,0.00,Wunderground v.1.15,2013-05-24 20:10:00,
2013-05-24 15:15:00,67.4,44.1,30.28,South,175,0.0,0.0,43,0.00,,,0.00,Wunderground v.1.15,2013-05-24 20:15:00,
2013-05-24 15:22:00,67.9,44.0,30.28,SSE,165,0.0,0.0,42,0.00,,,0.00,Wunderground v.1.15,2013-05-24 20:22:00,
2013-05-24 15:27:00,68.2,44.8,30.27,SE,141,0.0,0.0,43,0.00,,,0.00,Wunderground v.1.15,2013-05-24 20:27:00,
2013-05-24 15:32:00,68.5,46.9,30.27,SE,134,0.0,0.0,46,0.00,,,0.00,Wunderground v.1.15,2013-05-24 20:32:00,
2013-05-24 15:37:00,68.7,44.0,30.26,SE,146,0.0,0.0,41,0.00,,,0.00,Wunderground v.1.15,2013-05-24 20:37:00,
2013-05-24 15:42:00,68.4,45.6,30.26,SSE,153,0.0,0.0,44,0.00,,,0.00,Wunderground v.1.15,2013-05-24 20:42:00,
2013-05-24 15:47:00,68.8,44.1,30.27,South,172,0.0,0.0,41,0.00,,,0.00,Wunderground v.1.15,2013-05-24 20:47:00,
2013-05-24 15:52:00,68.6,47.0,30.27,SE,143,0.0,0.0,46,0.00,,,0.00,Wunderground v.1.15,2013-05-24 20:52:00,
2013-05-24 15:58:00,68.9,45.5,30.26,SSE,152,0.0,0.0,43,0.00,,,0.00,Wunderground v.1.15,2013-05-24 20:58:00,
2013-05-24 16:03:00,68.7,43.4,30.25,South,182,0.0,0.0,40,0.00,,,0.00,Wunderground v.1.15,2013-05-24 21:03:00,
2013-05-24 16:08:00,68.3,43.0,30.25,SSE,168,0.0,0.0,40,0.00,,,0.00,Wunderground v.1.15,2013-05-24 21:08:00,
2013-05-24 16:13:00,68.4,44.4,30.25,SSE,163,0.0,0.0,42,0.00,,,0.00,Wunderground v.1.15,2013-05-24 21:13:00,
2013-05-24 16:18:00,68.5,43.9,30.24,SSE,151,0.0,0.0,41,0.00,,,0.00,Wunderground v.1.15,2013-05-24 21:18:00,
2013-05-24 16:23:00,68.9,44.2,30.25,SSE,162,0.0,0.0,41,0.00,,,0.00,Wunderground v.1.15,2013-05-24 21:23:00,
2013-05-24 16:28:00,68.6,43.9,30.24,SE,143,0.0,0.0,41,0.00,,,0.00,Wunderground v.1.15,2013-05-24 21:28:00,
2013-05-24 16:33:00,68.2,42.3,30.24,ESE,113,0.0,0.0,39,0.00,,,0.00,Wunderground v.1.15,2013-05-24 21:33:00,
2013-05-24 16:38:00,68.1,45.4,30.24,SE,144,0.0,0.0,44,0.00,,,0.00,Wunderground v.1.15,2013-05-24 21:38:00,
2013-05-24 16:43:00,68.3,43.7,30.23,SSE,157,0.0,0.0,41,0.00,,,0.00,Wunderground v.1.15,2013-05-24 21:43:00,
2013-05-24 16:48:00,68.4,42.5,30.23,SSE,147,0.0,0.0,39,0.00,,,0.00,Wunderground v.1.15,2013-05-24 21:48:00,
2013-05-24 16:53:00,68.5,41.2,30.23,South,182,0.0,0.0,37,0.00,,,0.00,Wunderground v.1.15,2013-05-24 21:53:00,
2013-05-24 16:58:00,68.5,42.6,30.23,SSE,149,0.0,0.0,39,0.00,,,0.00,Wunderground v.1.15,2013-05-24 21:58:00,
2013-05-24 17:03:00,68.8,43.5,30.23,SSE,150,0.0,0.0,40,0.00,,,0.00,Wunderground v.1.15,2013-05-24 22:03:00,
2013-05-24 17:08:00,69.0,42.3,30.23,SSE,160,0.0,0.0,38,0.00,,,0.00,Wunderground v.1.15,2013-05-24 22:08:00,
2013-05-24 17:13:00,68.6,41.3,30.22,South,173,0.0,0.0,37,0.00,,,0.00,Wunderground v.1.15,2013-05-24 22:13:00,
2013-05-24 17:18:00,68.8,42.8,30.22,SSE,160,0.0,0.0,39,0.00,,,0.00,Wunderground v.1.15,2013-05-24 22:18:00,
2013-05-24 17:23:00,68.9,43.6,30.22,South,178,0.0,0.0,40,0.00,,,0.00,Wunderground v.1.15,2013-05-24 22:23:00,
2013-05-24 17:28:00,68.8,42.8,30.22,SE,144,0.0,0.0,39,0.00,,,0.00,Wunderground v.1.15,2013-05-24 22:28:00,
2013-05-24 17:33:00,68.8,43.5,30.22,SSE,163,0.0,0.0,40,0.00,,,0.00,Wunderground v.1.15,2013-05-24 22:33:00,
2013-05-24 17:38:00,68.7,43.4,30.22,SE,131,0.0,0.0,40,0.00,,,0.00,Wunderground v.1.15,2013-05-24 22:38:00,
2013-05-24 17:43:00,68.7,44.0,30.22,SSE,162,0.0,0.0,41,0.00,,,0.00,Wunderground v.1.15,2013-05-24 22:43:00,
2013-05-24 17:48:00,68.6,43.9,30.22,South,171,0.0,0.0,41,0.00,,,0.00,Wunderground v.1.15,2013-05-24 22:48:00,
2013-05-24 17:53:00,68.5,43.2,30.22,SSE,159,0.0,0.0,40,0.00,,,0.00,Wunderground v.1.15,2013-05-24 22:53:00,
2013-05-24 17:58:00,68.5,43.9,30.22,SSE,150,0.0,0.0,41,0.00,,,0.00,Wunderground v.1.15,2013-05-24 22:58:00,
2013-05-24 18:03:00,68.6,43.9,30.22,SSE,165,0.0,0.0,41,0.00,,,0.00,Wunderground v.1.15,2013-05-24 23:03:00,
2013-05-24 18:08:00,68.5,42.6,30.22,SSE,153,0.0,0.0,39,0.00,,,0.00,Wunderground v.1.15,2013-05-24 23:08:00,
2013-05-24 18:13:00,68.0,42.1,30.22,SSE,163,0.0,0.0,39,0.00,,,0.00,Wunderground v.1.15,2013-05-24 23:13:00,
2013-05-24 18:18:00,67.8,43.2,30.22,South,169,0.0,0.0,41,0.00,,,0.00,Wunderground v.1.15,2013-05-24 23:18:00,
2013-05-24 18:23:00,67.8,43.2,30.22,SE,143,0.0,0.0,41,0.00,,,0.00,Wunderground v.1.15,2013-05-24 23:23:00,
2013-05-24 18:28:00,67.9,43.3,30.22,SSE,165,0.0,0.0,41,0.00,,,0.00,Wunderground v.1.15,2013-05-24 23:28:00,
2013-05-24 18:33:00,68.1,42.9,30.22,SSE,165,0.0,0.0,40,0.00,,,0.00,Wunderground v.1.15,2013-05-24 23:33:00,
2013-05-24 18:38:00,68.0,42.1,30.22,SSE,167,0.0,0.0,39,0.00,,,0.00,Wunderground v.1.15,2013-05-24 23:38:00,
2013-05-24 18:43:00,67.9,43.3,30.22,South,173,0.0,0.0,41,0.00,,,0.00,Wunderground v.1.15,2013-05-24 23:43:00,
2013-05-24 18:48:00,67.8,43.9,30.22,SSE,158,0.0,0.0,42,0.00,,,0.00,Wunderground v.1.15,2013-05-24 23:48:00,
2013-05-24 18:53:00,67.7,43.1,30.22,South,180,0.0,0.0,41,0.00,,,0.00,Wunderground v.1.15,2013-05-24 23:53:00,
2013-05-24 18:58:00,67.6,42.4,30.22,South,175,0.0,0.0,40,0.00,,,0.00,Wunderground v.1.15,2013-05-24 23:58:00,
2013-05-24 19:03:00,67.5,42.3,30.22,SSE,155,0.0,0.0,40,0.00,,,0.00,Wunderground v.1.15,2013-05-25 00:03:00,
2013-05-24 19:08:00,67.2,41.4,30.22,SSW,200,0.0,0.0,39,0.00,,,0.00,Wunderground v.1.15,2013-05-25 00:08:00,
2013-05-24 19:13:00,66.9,43.0,30.22,South,186,0.0,0.0,42,0.00,,,0.00,Wunderground v.1.15,2013-05-25 00:13:00,
2013-05-24 19:19:00,66.3,42.5,30.22,South,172,0.0,0.0,42,0.00,,,0.00,Wunderground v.1.15,2013-05-25 00:19:00,
2013-05-24 19:24:00,65.8,43.3,30.22,SSE,160,0.0,0.0,44,0.00,,,0.00,Wunderground v.1.15,2013-05-25 00:24:00,
2013-05-24 19:29:00,65.5,43.0,30.22,South,189,0.0,0.0,44,0.00,,,0.00,Wunderground v.1.15,2013-05-25 00:29:00,
2013-05-24 19:34:00,65.2,42.7,30.22,SSE,160,0.0,0.0,44,0.00,,,0.00,Wunderground v.1.15,2013-05-25 00:34:00,
2013-05-24 19:39:00,64.8,42.4,30.22,SSE,164,0.0,0.0,44,0.00,,,0.00,Wunderground v.1.15,2013-05-25 00:39:00,
2013-05-24 19:44:00,64.5,42.7,30.22,SSE,161,0.0,0.0,45,0.00,,,0.00,Wunderground v.1.15,2013-05-25 00:44:00,
2013-05-24 19:49:00,64.0,42.8,30.22,South,173,0.0,0.0,46,0.00,,,0.00,Wunderground v.1.15,2013-05-25 00:49:00,
2013-05-24 19:54:00,63.8,43.2,30.22,SSE,167,0.0,0.0,47,0.00,,,0.00,Wunderground v.1.15,2013-05-25 00:54:00,
2013-05-24 19:59:00,63.6,43.5,30.22,South,169,0.0,0.0,48,0.00,,,0.00,Wunderground v.1.15,2013-05-25 00:59:00,
2013-05-24 20:04:00,63.4,44.4,30.23,SSE,165,0.0,0.0,50,0.00,,,0.00,Wunderground v.1.15,2013-05-25 01:04:00,
2013-05-24 20:09:00,63.2,44.2,30.23,SSE,167,0.0,0.0,50,0.00,,,0.00,Wunderground v.1.15,2013-05-25 01:09:00,
2013-05-24 20:14:00,63.0,44.6,30.23,SSE,165,0.0,0.0,51,0.00,,,0.00,Wunderground v.1.15,2013-05-25 01:14:00,
2013-05-24 20:19:00,63.0,44.6,30.22,SSE,161,0.0,0.0,51,0.00,,,0.00,Wunderground v.1.15,2013-05-25 01:19:00,
2013-05-24 20:24:00,62.9,45.5,30.23,SSE,161,0.0,0.0,53,0.00,,,0.00,Wunderground v.1.15,2013-05-25 01:24:00,
2013-05-24 20:29:00,62.7,44.3,30.23,SSE,159,0.0,0.0,51,0.00,,,0.00,Wunderground v.1.15,2013-05-25 01:29:00,
2013-05-24 20:34:00,62.6,44.2,30.23,SSE,159,0.0,0.0,51,0.00,,,0.00,Wunderground v.1.15,2013-05-25 01:34:00,
2013-05-24 20:39:00,62.5,44.1,30.24,SSE,159,0.0,0.0,51,0.00,,,0.00,Wunderground v.1.15,2013-05-25 01:39:00,
2013-05-24 20:44:00,62.5,43.1,30.26,SSE,159,0.0,0.0,49,0.00,,,0.00,Wunderground v.1.15,2013-05-25 01:44:00,
2013-05-24 20:49:00,62.4,42.4,30.27,SSE,159,0.0,0.0,48,0.00,,,0.00,Wunderground v.1.15,2013-05-25 01:49:00,
2013-05-24 20:54:00,62.5,43.6,30.27,SSE,159,0.0,0.0,50,0.00,,,0.00,Wunderground v.1.15,2013-05-25 01:54:00,
2013-05-24 20:59:00,62.5,42.0,30.27,SSE,159,0.0,0.0,47,0.00,,,0.00,Wunderground v.1.15,2013-05-25 01:59:00,
2013-05-24 21:04:00,62.5,45.1,30.27,SSE,159,0.0,0.0,53,0.00,,,0.00,Wunderground v.1.15,2013-05-25 02:04:00,
2013-05-24 21:09:00,62.4,46.5,30.26,SSE,159,0.0,0.0,56,0.00,,,0.00,Wunderground v.1.15,2013-05-25 02:09:00,
2013-05-24 21:14:00,62.2,47.2,30.27,SSE,159,0.0,0.0,58,0.00,,,0.00,Wunderground v.1.15,2013-05-25 02:14:00,
2013-05-24 21:19:00,62.0,47.5,30.27,SSE,159,0.0,0.0,59,0.00,,,0.00,Wunderground v.1.15,2013-05-25 02:19:00,
2013-05-24 21:24:00,61.7,47.7,30.26,SSE,159,0.0,0.0,60,0.00,,,0.00,Wunderground v.1.15,2013-05-25 02:24:00,
2013-05-24 21:29:00,61.5,47.9,30.26,SSE,159,0.0,0.0,61,0.00,,,0.00,Wunderground v.1.15,2013-05-25 02:29:00,
2013-05-24 21:34:00,61.2,48.1,30.26,SSE,159,0.0,0.0,62,0.00,,,0.00,Wunderground v.1.15,2013-05-25 02:34:00,
2013-05-24 21:39:00,60.9,48.6,30.26,SSE,159,0.0,0.0,64,0.00,,,0.00,Wunderground v.1.15,2013-05-25 02:39:00,
2013-05-24 21:45:00,60.7,48.4,30.26,SSE,159,0.0,0.0,64,0.00,,,0.00,Wunderground v.1.15,2013-05-25 02:45:00,
2013-05-24 21:50:00,60.5,47.8,30.26,SSE,159,0.0,0.0,63,0.00,,,0.00,Wunderground v.1.15,2013-05-25 02:50:00,
2013-05-24 21:55:00,60.4,47.7,30.25,SSE,159,0.0,0.0,63,0.00,,,0.00,Wunderground v.1.15,2013-05-25 02:55:00,
2013-05-24 22:00:00,60.3,46.8,30.23,SSE,159,0.0,0.0,61,0.00,,,0.00,Wunderground v.1.15,2013-05-25 03:00:00,
2013-05-24 22:05:00,60.3,47.2,30.22,SSE,159,0.0,0.0,62,0.00,,,0.00,Wunderground v.1.15,2013-05-25 03:05:00,
2013-05-24 22:09:00,60.3,47.6,30.20,SSE,159,0.0,0.0,63,0.00,,,0.01,Wunderground v.1.15,2013-05-25 03:09:00,
2013-05-24 22:15:00,60.1,48.3,30.18,SE,144,0.0,0.0,65,0.00,,,0.01,Wunderground v.1.15,2013-05-25 03:15:00,
2013-05-24 22:20:00,59.6,48.2,30.19,East,88,0.0,0.0,66,0.00,,,0.01,Wunderground v.1.15,2013-05-25 03:20:00,
2013-05-24 22:25:00,59.2,48.2,30.22,SSE,163,0.0,0.0,67,0.00,,,0.01,Wunderground v.1.15,2013-05-25 03:25:00,
2013-05-24 22:30:00,59.0,48.4,30.23,SSE,150,0.0,0.0,68,0.00,,,0.01,Wunderground v.1.15,2013-05-25 03:30:00,
2013-05-24 22:35:00,58.8,48.6,30.24,SSE,150,0.0,0.0,69,0.00,,,0.01,Wunderground v.1.15,2013-05-25 03:35:00,
2013-05-24 22:40:00,58.7,48.2,30.23,SSE,150,0.0,0.0,68,0.00,,,0.01,Wunderground v.1.15,2013-05-25 03:40:00,
2013-05-24 22:45:00,58.7,48.9,30.21,East,93,0.0,0.0,70,0.00,,,0.01,Wunderground v.1.15,2013-05-25 03:45:00,
2013-05-24 22:50:00,58.7,48.6,30.21,East,87,0.0,0.0,69,0.00,,,0.01,Wunderground v.1.15,2013-05-25 03:50:00,
2013-05-24 22:55:00,58.7,48.9,30.23,NE,34,0.0,0.0,70,0.00,,,0.01,Wunderground v.1.15,2013-05-25 03:55:00,
2013-05-24 23:00:00,58.5,49.5,30.23,East,92,0.0,0.0,72,0.00,,,0.01,Wunderground v.1.15,2013-05-25 04:00:00,
2013-05-24 23:02:00,58.4,49.0,30.23,East,82,0.0,0.0,71,0.00,,,0.01,Wunderground v.1.15,2013-05-25 04:02:00,
2013-05-24 23:03:00,58.5,49.1,30.23,East,82,0.0,0.0,71,0.00,,,0.01,Wunderground v.1.15,2013-05-25 04:03:00,
2013-05-24 23:08:00,58.3,49.7,30.22,East,83,0.0,0.0,73,0.00,,,0.01,Wunderground v.1.15,2013-05-25 04:08:00,
2013-05-24 23:13:00,58.1,49.1,30.22,East,86,0.0,0.0,72,0.00,,,0.01,Wunderground v.1.15,2013-05-25 04:13:00,
2013-05-24 23:18:00,58.1,48.7,30.21,ENE,78,0.0,0.0,71,0.00,,,0.01,Wunderground v.1.15,2013-05-25 04:18:00,
2013-05-24 23:23:00,58.1,48.4,30.21,East,79,0.0,0.0,70,0.00,,,0.01,Wunderground v.1.15,2013-05-25 04:23:00,
2013-05-24 23:28:00,58.1,48.7,30.22,East,79,0.0,0.0,71,0.00,,,0.01,Wunderground v.1.15,2013-05-25 04:28:00,
2013-05-24 23:33:00,57.9,48.6,30.21,East,79,0.0,0.0,71,0.00,,,0.01,Wunderground v.1.15,2013-05-25 04:33:00,
2013-05-24 23:39:00,57.7,48.4,30.20,East,79,0.0,0.0,71,0.00,,,0.01,Wunderground v.1.15,2013-05-25 04:39:00,
2013-05-24 23:44:00,57.6,47.9,30.20,East,79,0.0,0.0,70,0.00,,,0.01,Wunderground v.1.15,2013-05-25 04:44:00,
2013-05-24 23:49:00,57.5,47.4,30.20,East,79,0.0,0.0,69,0.00,,,0.01,Wunderground v.1.15,2013-05-25 04:49:00,
2013-05-24 23:54:00,57.4,47.3,30.20,ENE,59,0.0,0.0,69,0.00,,,0.01,Wunderground v.1.15,2013-05-25 04:54:00,